| time (UTC) | temp F | wind direction | speed knots | gust knots | rain 1hr in | rain 24hr in | rain mn in | humidity % | barometer mb |
| 20260507201518 | 75 | 196 | 0.0 | 0.0 | 0.09 | 0.09 | 0.09 | 96 | 1016.6 |
| 20260507200031 | 75 | 196 | 0.0 | 0.0 | 0.09 | 0.09 | 0.09 | 95 | 1017.0 |
| 20260507194525 | 75 | 178 | 0.0 | 2.6 | 0.08 | 0.08 | 0.08 | 93 | 1016.9 |
| 20260507193043 | 76 | 62 | 1.7 | 5.2 | 0.02 | 0.02 | 0.02 | 92 | 1017.4 |
| 20260507191529 | 77 | 82 | 1.7 | 8.7 | 0.00 | 0.00 | 0.00 | 87 | 1017.3 |
| 20260507190024 | 79 | 142 | 4.3 | 13.0 | 0.00 | 0.00 | 0.00 | 85 | 1016.7 |
| 20260507184523 | 80 | 152 | 6.1 | 11.3 | 0.00 | 0.00 | 0.00 | 82 | 1016.6 |
| 20260507183036 | 81 | 157 | 5.2 | 12.2 | 0.00 | 0.00 | 0.00 | 81 | 1016.6 |
| 20260507181528 | 83 | 182 | 6.1 | 12.2 | 0.00 | 0.00 | 0.00 | 80 | 1017.1 |
| 20260507180026 | 83 | 202 | 4.3 | 13.9 | 0.00 | 0.00 | 0.00 | 80 | 1017.2 |
| 20260507174519 | 82 | 147 | 1.7 | 11.3 | 0.00 | 0.00 | 0.00 | 80 | 1017.6 |
| 20260507173024 | 82 | 105 | 5.2 | 13.0 | 0.00 | 0.00 | 0.00 | 81 | 1017.7 |
| 20260507171527 | 82 | 194 | 4.3 | 11.3 | 0.00 | 0.00 | 0.00 | 80 | 1017.9 |
| 20260507170030 | 82 | 209 | 6.1 | 14.8 | 0.00 | 0.00 | 0.00 | 81 | 1018.2 |
| 20260507164529 | 81 | 198 | 4.3 | 10.4 | 0.00 | 0.00 | 0.00 | 83 | 1018.4 |
| 20260507163023 | 82 | 162 | 3.5 | 8.7 | 0.00 | 0.00 | 0.00 | 80 | 1018.5 |
| 20260507161525 | 82 | 186 | 3.5 | 13.9 | 0.00 | 0.00 | 0.00 | 80 | 1018.8 |
| 20260507160040 | 82 | 168 | 7.8 | 13.9 | 0.00 | 0.00 | 0.00 | 81 | 1018.8 |
| 20260507154529 | 82 | 229 | 4.3 | 9.6 | 0.00 | 0.00 | 0.00 | 81 | 1018.9 |
| 20260507153022 | 82 | 142 | 4.3 | 12.2 | 0.00 | 0.00 | 0.00 | 82 | 1019.0 |
| 20260507151524 | 81 | 192 | 3.5 | 12.2 | 0.00 | 0.00 | 0.00 | 84 | 1019.1 |
| 20260507150008 | 80 | 121 | 4.3 | 13.0 | 0.00 | 0.00 | 0.00 | 83 | 1019.0 |
| 20260507144529 | 80 | 193 | 4.3 | 10.4 | 0.00 | 0.00 | 0.00 | 82 | 1019.1 |
| 20260507143017 | 80 | 211 | 1.7 | 3.5 | 0.00 | 0.00 | 0.00 | 81 | 1019.2 |
| 20260507141527 | 79 | 147 | 1.7 | 6.1 | 0.00 | 0.00 | 0.00 | 82 | 1019.2 |
| 20260507140027 | 79 | 182 | 0.9 | 6.1 | 0.00 | 0.00 | 0.00 | 83 | 1019.4 |
| 20260507134522 | 78 | 155 | 2.6 | 10.4 | 0.00 | 0.00 | 0.00 | 84 | 1019.5 |
| 20260507133014 | 79 | 136 | 1.7 | 6.1 | 0.00 | 0.00 | 0.00 | 84 | 1019.1 |
| 20260507131528 | 78 | 179 | 2.6 | 8.7 | 0.00 | 0.00 | 0.00 | 84 | 1019.0 |
| 20260507130032 | 78 | 226 | 1.7 | 7.8 | 0.00 | 0.00 | 0.00 | 85 | 1019.0 |
| 20260507124528 | 78 | 195 | 2.6 | 10.4 | 0.00 | 0.00 | 0.00 | 84 | 1018.9 |
| 20260507123017 | 77 | 191 | 2.6 | 7.0 | 0.00 | 0.00 | 0.00 | 85 | 1018.7 |
| 20260507121522 | 76 | 168 | 1.7 | 8.7 | 0.00 | 0.00 | 0.00 | 87 | 1018.4 |
| 20260507120022 | 76 | 265 | 0.9 | 10.4 | 0.00 | 0.00 | 0.00 | 87 | 1018.2 |
| 20260507114528 | 76 | 132 | 2.6 | 7.0 | 0.00 | 0.00 | 0.00 | 87 | 1018.0 |
| 20260507113029 | 75 | 182 | 0.9 | 7.0 | 0.00 | 0.00 | 0.00 | 87 | 1017.9 |
| 20260507111523 | 74 | 326 | 1.7 | 6.1 | 0.00 | 0.00 | 0.00 | 89 | 1017.9 |
| 20260507110025 | 74 | 336 | 1.7 | 7.8 | 0.00 | 0.00 | 0.00 | 88 | 1017.9 |
| 20260507104524 | 74 | 88 | 3.5 | 7.8 | 0.00 | 0.00 | 0.00 | 89 | 1017.8 |
| 20260507103027 | 74 | 281 | 0.0 | 6.1 | 0.00 | 0.00 | 0.00 | 89 | 1017.7 |
| 20260507101530 | 74 | 301 | 0.0 | 10.4 | 0.00 | 0.00 | 0.00 | 89 | 1017.4 |
| 20260507100018 | 73 | 231 | 0.0 | 10.4 | 0.00 | 0.00 | 0.00 | 89 | 1017.2 |
| 20260507094525 | 74 | 165 | 1.7 | 7.8 | 0.00 | 0.00 | 0.00 | 88 | 1017.0 |
| 20260507093034 | 73 | 290 | 1.7 | 4.3 | 0.00 | 0.00 | 0.00 | 88 | 1017.2 |
| 20260507091527 | 74 | 292 | 1.7 | 5.2 | 0.00 | 0.00 | 0.00 | 87 | 1017.2 |
| 20260507090028 | 74 | 10 | 0.9 | 7.0 | 0.00 | 0.00 | 0.00 | 87 | 1017.3 |
| 20260507084521 | 74 | 20 | 0.9 | 5.2 | 0.00 | 0.00 | 0.00 | 87 | 1017.2 |
| 20260507083028 | 74 | 59 | 0.9 | 7.0 | 0.00 | 0.00 | 0.00 | 86 | 1017.4 |
| 20260507081535 | 74 | 317 | 1.7 | 6.1 | 0.00 | 0.00 | 0.00 | 86 | 1017.2 |
| 20260507080027 | 74 | 46 | 0.0 | 8.7 | 0.00 | 0.00 | 0.00 | 86 | 1017.1 |
| 20260507074526 | 74 | 80 | 1.7 | 5.2 | 0.00 | 0.00 | 0.00 | 85 | 1017.1 |
| 20260507073024 | 74 | 45 | 2.6 | 7.8 | 0.00 | 0.00 | 0.00 | 86 | 1017.1 |
| 20260507071506 | 74 | 30 | 0.9 | 8.7 | 0.00 | 0.00 | 0.00 | 86 | 1017.4 |
| 20260507070014 | 74 | 58 | 1.7 | 7.8 | 0.00 | 0.00 | 0.00 | 85 | 1017.5 |
| 20260507064523 | 74 | 322 | 0.9 | 5.2 | 0.00 | 0.00 | 0.00 | 84 | 1017.7 |
| 20260507063024 | 74 | 56 | 0.9 | 7.0 | 0.00 | 0.00 | 0.00 | 84 | 1017.8 |
| 20260507061527 | 74 | 309 | 0.0 | 6.1 | 0.00 | 0.00 | 0.00 | 84 | 1018.0 |
| 20260507060011 | 74 | 317 | 0.0 | 7.8 | 0.00 | 0.00 | 0.00 | 84 | 1018.1 |
| 20260507054524 | 74 | 46 | 1.7 | 3.5 | 0.00 | 0.00 | 0.00 | 83 | 1018.4 |
| 20260507053020 | 75 | 279 | 0.0 | 6.1 | 0.00 | 0.00 | 0.00 | 81 | 1018.6 |
| 20260507051526 | 75 | 142 | 1.7 | 6.1 | 0.00 | 0.00 | 0.00 | 80 | 1018.7 |
| 20260507050034 | 76 | 126 | 0.0 | 3.5 | 0.00 | 0.00 | 0.00 | 78 | 1018.8 |
| 20260507044509 | 76 | 142 | 0.9 | 5.2 | 0.00 | 0.00 | 0.00 | 78 | 1019.0 |
| 20260507043003 | 76 | 84 | 0.0 | 4.3 | 0.00 | 0.00 | 0.00 | 78 | 1019.4 |
| 20260507041513 | 75 | 73 | 0.9 | 5.2 | 0.00 | 0.00 | 0.00 | 80 | 1019.5 |
| 20260507040008 | 75 | 360 | 0.9 | 5.2 | 0.00 | 0.00 | 0.00 | 81 | 1019.6 |
| 20260507034512 | 75 | 343 | 0.0 | 3.5 | 0.00 | 0.00 | 0.00 | 82 | 1019.8 |
| 20260507033012 | 75 | 75 | 0.9 | 5.2 | 0.00 | 0.00 | 0.00 | 82 | 1019.9 |
| 20260507031504 | 75 | 21 | 0.0 | 5.2 | 0.00 | 0.00 | 0.00 | 83 | 1019.9 |
| 20260507030004 | 75 | 17 | 0.0 | 7.0 | 0.00 | 0.00 | 0.00 | 83 | 1020.0 |
| 20260507024508 | 75 | 355 | 0.9 | 3.5 | 0.00 | 0.00 | 0.00 | 84 | 1020.0 |
| 20260507023009 | 75 | 126 | 0.9 | 3.5 | 0.00 | 0.00 | 0.00 | 84 | 1020.1 |
| 20260507021512 | 75 | 36 | 0.9 | 3.5 | 0.00 | 0.00 | 0.00 | 85 | 1020.0 |
| 20260507020004 | 75 | 317 | 0.0 | 0.9 | 0.00 | 0.00 | 0.00 | 86 | 1019.9 |
| 20260507014516 | 75 | 49 | 0.0 | 2.6 | 0.00 | 0.00 | 0.00 | 87 | 1019.8 |
| 20260507013029 | 74 | 82 | 0.0 | 1.7 | 0.00 | 0.00 | 0.00 | 89 | 1019.7 |
| 20260507011528 | 74 | 57 | 0.0 | 2.6 | 0.00 | 0.00 | 0.00 | 90 | 1019.5 |
| 20260507010013 | 75 | 75 | 0.0 | 2.6 | 0.00 | 0.00 | 0.00 | 90 | 1019.4 |
| 20260507004505 | 75 | 331 | 0.0 | 3.5 | 0.00 | 0.00 | 0.00 | 91 | 1019.4 |
| 20260507003010 | 75 | 330 | 0.0 | 2.6 | 0.00 | 0.00 | 0.00 | 91 | 1019.2 |
| 20260507001514 | 75 | 91 | 0.9 | 3.5 | 0.00 | 0.00 | 0.00 | 91 | 1019.1 |
| 20260507000023 | 75 | 332 | 0.0 | 0.0 | 0.00 | 0.00 | 0.00 | 91 | 1019.1 |
| 20260506234517 | 76 | 342 | 0.0 | 1.7 | 0.00 | 0.00 | 0.00 | 90 | 1018.9 |
| 20260506233006 | 75 | 171 | 0.0 | 0.9 | 0.00 | 0.00 | 0.00 | 90 | 1018.7 |
| 20260506231514 | 76 | 266 | 0.0 | 2.6 | 0.00 | 0.00 | 0.00 | 90 | 1018.6 |
| 20260506230018 | 76 | 121 | 0.0 | 3.5 | 0.00 | 0.00 | 0.00 | 90 | 1018.4 |
| 20260506224522 | 77 | 31 | 1.7 | 6.1 | 0.00 | 0.00 | 0.00 | 89 | 1018.3 |
| 20260506223020 | 77 | 239 | 0.0 | 5.2 | 0.00 | 0.00 | 0.00 | 88 | 1018.1 |
| 20260506221510 | 77 | 223 | 1.7 | 10.4 | 0.00 | 0.00 | 0.00 | 88 | 1017.9 |
| 20260506220016 | 77 | 205 | 0.9 | 9.6 | 0.00 | 0.00 | 0.00 | 87 | 1017.8 |
| 20260506214519 | 78 | 142 | 4.3 | 7.8 | 0.00 | 0.00 | 0.00 | 87 | 1017.7 |
| 20260506213021 | 78 | 106 | 2.6 | 10.4 | 0.00 | 0.00 | 0.00 | 84 | 1017.7 |
| 20260506211526 | 79 | 140 | 3.5 | 12.2 | 0.00 | 0.00 | 0.00 | 82 | 1017.5 |
| 20260506210015 | 80 | 119 | 4.3 | 13.9 | 0.00 | 0.00 | 0.00 | 80 | 1017.5 |
| 20260506204519 | 81 | 221 | 6.1 | 16.5 | 0.00 | 0.00 | 0.00 | 79 | 1017.3 |
| 20260506203023 | 81 | 178 | 5.2 | 13.0 | 0.00 | 0.00 | 0.00 | 76 | 1017.4 |